ATLAS D DEB, 2329

Orbit data source: Space-Track

ATLAS D DEB, 2329 is space debris in LEO originally from a launch on Thu, 14 Jul 1966 UTC launched from the Air Force Western Test Range (AFWTR). Debris objects in space refer to the collection of defunct objects orbiting the Earth. Examples of debris include non-operational satellites, rocket bodies, and fragments generated from explosions, collisions, or faulty payload assembly.

Loading next visibility...
Identifier
2329, 1966-063D
Orbit
LEO
Country
Flag of USUS
Related business
Manufacturer
Goodyear
Mission
Spacecraft
Bus & Motor
CONTAINER, Unknown motor
Mass
2 kg wet, 2 kg dry
Launch date (UTC)
1966-07-14 (60 years ago)
Launch vehicle
Unknown
Launch site
Air Force Western Test Range (AFWTR)
Object type
Payload
Rocket body
Debris
Shape & HBR
Unknown
Radar Cross Section
Medium (>0.1 m² and <1 m²)

Expand to show TLE details & history
Last TLE update: 2 days ago

TLE from 2 days ago
0 ATLAS D DEB
1  2329U 66063D   26162.55790403  .00000420  00000-0  11912-3 0  9990
2  2329 144.2883  68.1377 0023333 185.9342 346.0119 13.92649379 21398
Epoch: 2026-06-11T13:23Z
TLE epoch observation values (Epoch: 2026-06-11T13:23:22.908Z)
Latitude
4.71483°
Longitude
153.94544°
Altitude
901.397 km
Speed
7.412 km/s
True Right ascension
16h 58m 45s
True Declination
4° 41' 14"
Sunlit
Object was in full shadow at epoch
Visualization orbit readout
Latitude
Unknown
Longitude
Unknown
Altitude
Unknown
Speed
Unknown
Apparent Right ascension
Unknown
Apparent Declination
Unknown
Sunlit
N/A
Visualization observer readout
Local Sidereal Time
12:59:01
Azimuth
Unknown
Elevation
Unknown
Doppler factor
Unknown
Orbital elements
Apogee altitude
939.351 km
Perigee altitude
905.283 km
Semi-major axis
7,300.454 km
Eccentricity
0.00233
Inclination
144.2883°
RAAN
68.1377°
Arg. of periapsis
185.9342°
True anomaly
345.94709°
Mean anomaly
346.0119°
Eccentric anomaly
345.97951°
Mean motion
3.47951 °/min
Orbital period
103.46 mins
BSTAR
0.00011912
Loading maneuver chart data...
Computing Atmospheric mass density...
Loading historical data...
Loading historical data...
Loading historical data...
Loading historical data...
Loading historical data...
Loading historical data...
Loading historical data...

Documentation

Showing up to 5 results
|